Location: Tr�vern
(48.0333°N, 4.6000°W)
Time: 17:46:59
(UTC+00:00)

Cosmos 2242 Rocket - Pass Details

Date: 14 July 2020
Orbit: 618 x 652 km, 82.5° (Epoch: 13 August)

Event Time Altitude Azimuth Distance (km) Brightness Sun altitude
Rises 01:40:35 0° 346° (NNW) 2,980 8.0 -18.3°
Reaches altitude 10° 01:42:54 10° 342° (NNW) 2,062 7.0 -18.1°
Maximum altitude 01:47:21 54° 266° (W) 785 3.9 -17.9°
Enters shadow 01:48:54 36° 209° (SSW) 1,022 4.1 -17.8°
